Location: Piotrkow Trybunalski
(51.4000°N, 19.6830°E)
Time: 22:36:47
(UTC+01:00)

ISS - Pass Details

Date: 03 February 2020
Orbit: 415 x 423 km, 51.6° (Epoch: 25 February)

Event Time Altitude Azimuth Distance (km) Brightness Sun altitude
Rises 18:31:26 0° 284° (WNW) 2,382 1.5 -18.5°
Reaches altitude 10° 18:33:37 10° 277° (W) 1,513 0.3 -18.8°
Maximum altitude 18:36:49 39° 207° (SSW) 651 -2.6 -19.3°
Enters shadow 18:37:42 32° 169° (S) 754 -2.6 -19.4°
